This demonstration page uses our WeatherBlox Daily Observations layout. Learn more.

39.92423, -83.80882

Hourly Observations for December 29, 2017

Temp ( °F °C ) Dew Point ( °F °C ) Humidity (%) Winds ( mph kmh ) Pressure ( in mb ) Visibility ( mi km ) Precip ( " mm )
12:56 am 00:56 Cloudy 10 -12.2 4 -15.6 76 76 Calm 30.4 1030 10 16.0934 0 0
1:56 am 01:56 Mostly Cloudy 10 -12.2 6 -14.4 84 84 SSE 3 6 30.37 1028 10 16.0934 0 0
2:56 am 02:56 Cloudy 13 -10.6 8 -13.3 81 81 SW 5 7 30.38 1029 10 16.0934 0 0
3:56 am 03:56 Cloudy 14 -10 8 -13.3 77 77 SSW 6 9 30.37 1029 10 16.0934 0 0
4:56 am 04:56 Cloudy 15 -9.4 8 -13.3 74 74 SW 7 11 30.37 1029 9 14.48406 0 0.0254
5:56 am 05:56 Cloudy with Light Snow 15 -9.4 9 -12.8 77 77 WSW 8 13 30.37 1029 9 14.48406 0 0.0254
6:56 am 06:56 Cloudy with Light Snow 16 -8.9 9 -12.8 74 74 W 12 19 30.38 1029 9 14.48406 0 0.0254
7:56 am 07:56 Cloudy with Light Snow 16 -8.9 10 -12.2 77 77 W 10 17 30.39 1029 9 14.48406 0 0.0254
8:56 am 08:56 Cloudy with Light Snow 17 -8.3 11 -11.7 77 77 W 13 20 30.39 1029 9 14.48406 0 0.0254
9:28 am 09:28 Cloudy with Light Snow 18 -8 10 -12 73 73 W 15 24 30.42 1030 7 11.26538 0 0.0254
9:56 am 09:56 Cloudy with Light Snow 18 -7.8 12 -11.1 77 77 WNW 10 17 30.4 1029 6 9.65604 0 0.0254
10:56 am 10:56 Cloudy with Light Snow 20 -6.7 12 -11.1 71 71 WNW 15 24 30.41 1030 9 14.48406 0 0.0254
11:56 am 11:56 Cloudy with Light Snow 21 -6.1 12 -11.1 68 68 W 13 20 30.39 1029 9 14.48406 0 0.0254
12:56 pm 12:56 Cloudy with Light Snow 22 -5.6 12 -11.1 66 66 W 12 19 30.37 1028 9 14.48406 0 0.0254
1:56 pm 13:56 Cloudy with Light Snow 21 -6.1 13 -10.6 71 71 W 12 19 30.35 1028 9 14.48406 0 0.0254
2:56 pm 14:56 Cloudy 21 -6.1 12 -11.1 68 68 W 9 15 30.32 1027 10 16.0934 0 0.0254
3:56 pm 15:56 Cloudy 21 -6.1 13 -10.6 71 71 W 8 13 30.33 1027 10 16.0934 0 0
4:44 pm 16:44 Cloudy with Light Snow 19 -7 12 -11 73 73 W 7 11 30.36 1028 2 3.21868 0 0.0254
4:53 pm 16:53 Cloudy with Light Snow 19 -7 12 -11 73 73 W 6 9 30.36 1028 1.25 2.011675 0 0.0254
4:56 pm 16:56 Cloudy with Light Snow 19 -7.2 13 -10.6 77 77 W 6 9 30.32 1027 1.25 2.011675 0 0.0254
5:19 pm 17:19 Cloudy with Light Snow 19 -7 12 -11 73 73 WNW 3 6 30.36 1028 1 1.60934 0 0.0254
5:38 pm 17:38 Cloudy with Light Snow 18 -8 16 -9 93 93 Calm 30.33 1027 0.75 1.207005 0 0.0254
5:44 pm 17:44 Cloudy with Light Snow 18 -8 16 -9 93 93 Calm 30.33 1027 1.25 2.011675 0 0.0254
5:56 pm 17:56 Cloudy with Light Snow 18 -7.8 15 -9.4 88 88 Calm 30.29 1026 1.75 2.816345 0 0.0254
6:19 pm 18:19 Cloudy with Light Snow 18 -8 14 -10 86 86 WNW 6 9 30.33 1027 2 3.21868 0 0.0254
6:30 pm 18:30 Cloudy with Light Snow 18 -8 14 -10 86 86 WNW 7 11 30.33 1027 2 3.21868 0.01 0.254
6:35 pm 18:35 Cloudy with Light Snow 18 -8 14 -10 86 86 WNW 6 9 30.33 1027 1.5 2.41401 0.01 0.254
6:38 pm 18:38 Cloudy with Light Snow 18 -8 14 -10 86 86 WNW 7 11 30.33 1027 1 1.60934 0.01 0.254
6:47 pm 18:47 Cloudy with Light Snow 18 -8 14 -10 86 86 WNW 6 9 30.39 1029 1 1.60934 0.01 0.254
6:56 pm 18:56 Cloudy with Light Snow 18 -7.8 14 -10 84 84 WNW 5 7 30.31 1027 1 1.60934 0.01 0.254
7:06 pm 19:06 Cloudy with Light Snow 18 -8 14 -10 86 86 WNW 5 7 30.33 1027 1.5 2.41401 0 0.0254
7:13 pm 19:13 Cloudy with Light Snow 18 -8 14 -10 86 86 WNW 5 7 30.33 1027 1.5 2.41401 0 0.0254
7:51 pm 19:51 Cloudy with Light Snow 18 -8 16 -9 93 93 NNW 3 6 30.33 1027 1 1.60934 0 0.0254
7:56 pm 19:56 Cloudy with Light Snow 17 -8.3 15 -9.4 92 92 NNW 3 6 30.29 1026 1 1.60934 0 0.0254
8:26 pm 20:26 Cloudy with Light Snow 18 -8 16 -9 93 93 NNW 5 7 30.33 1027 0.75 1.207005 0 0.0254
8:49 pm 20:49 Cloudy with Light Snow 18 -8 16 -9 93 93 NNW 3 6 30.33 1027 1 1.60934 0 0.0254
8:56 pm 20:56 Cloudy with Light Snow 17 -8.3 15 -9.4 92 92 NNW 5 7 30.28 1026 0.75 1.207005 0 0.0254
9:15 pm 21:15 Cloudy with Light Snow 18 -8 16 -9 93 93 N 3 6 30.3 1026 1 1.60934 0 0.0254
9:25 pm 21:25 Cloudy with Light Snow 18 -8 14 -10 86 86 NNW 6 9 30.3 1026 1.5 2.41401 0 0.0254
9:51 pm 21:51 Cloudy with Light Snow 18 -8 14 -10 86 86 NE 5 7 30.27 1025 2 3.21868 0 0.0254
9:56 pm 21:56 Cloudy with Light Snow 16 -8.9 14 -10 92 92 ENE 5 7 30.24 1024 2.5 4.02335 0 0.0254
10:27 pm 22:27 Cloudy with Light Snow 16 -9 14 -10 93 93 Calm 30.3 1026 2.5 4.02335 0 0.0254
10:38 pm 22:38 Cloudy with Light Snow 16 -9 14 -10 93 93 Calm 30.3 1026 4 6.43736 0 0.0254
10:56 pm 22:56 Cloudy with Light Snow 16 -8.9 14 -10 92 92 Calm 30.23 1024 4 6.43736 0 0.0254
11:56 pm 23:56 Cloudy with Light Snow 16 -8.9 13 -10.6 88 88 Calm 30.2 1023 6 9.65604 0 0.0254

Powered by AerisWeather